TITAN 3C TRANSTAGE DEB, 1829

Orbit data source: Space-Track

TITAN 3C TRANSTAGE DEB, 1829 is space debris in LEO originally from a launch on Fri, 15 Oct 1965 UTC launched from the Air Force Eastern Test Range (AFETR). Debris objects in space refer to the collection of defunct objects orbiting the Earth. Examples of debris include non-operational satellites, rocket bodies, and fragments generated from explosions, collisions, or faulty payload assembly.

Loading next visibility...
Identifier
1829, 1965-082DU
Orbit
LEO
Country
Flag of USUS
Related business
Manufacturer
Unknown
Mission
Spacecraft
Bus & Motor
Unknown
Mass
Unknown
Launch date (UTC)
1965-10-15 (60 years ago)
Launch vehicle
Unknown
Launch site
Air Force Eastern Test Range (AFETR)
Object type
Payload
Rocket body
Debris
Shape & HBR
Unknown
Radar Cross Section
Small (<0.1 m²)

Expand to show TLE details & history
Last TLE update: 12 hours ago

TLE from 12 hours ago
0 TITAN 3C TRANSTAGE DEB
1 01829U 65082DU  25261.09552801  .00002753  00000-0  29058-3 0  9991
2 01829  32.2878 164.2507 0024303  51.5669 308.7164 14.87629620179945
Epoch: 2025-09-18T02:17Z
TLE epoch observation values (Epoch: 2025-09-18T02:17:33.62Z)
Latitude
0.00002°
Longitude
132.59861°
Altitude
593.407 km
Speed
7.571 km/s
True Right ascension
10h 57m 00s
True Declination
0° 00' 00"
Sunlit
Object was in daylight at epoch
Visualization orbit readout
Latitude
Unknown
Longitude
Unknown
Altitude
Unknown
Speed
Unknown
Apparent Right ascension
Unknown
Apparent Declination
Unknown
Sunlit
N/A
Visualization observer readout
Local Sidereal Time
07:09:17
Azimuth
Unknown
Elevation
Unknown
Doppler factor
Unknown
Orbital elements
Apogee altitude
625.938 km
Perigee altitude
591.976 km
Semi-major axis
6,987.094 km
Eccentricity
0.00243
Inclination
32.2878°
RAAN
164.2507°
Arg. of periapsis
51.5669°
True anomaly
308.49869°
Mean anomaly
308.7164°
Eccentric anomaly
308.60759°
Mean motion
3.71619 °/min
Orbital period
96.87 mins
BSTAR
0.00029058
Loading maneuver chart data...
Computing Atmospheric mass density...

Documentation

Showing up to 5 results
|